TimeCST,TemperatureF,Dew PointF,Humidity,Sea Level PressureIn,VisibilityMPH,Wind Direction,Wind SpeedMPH,Gust SpeedMPH,PrecipitationIn,Events,Conditions,WindDirDegrees,DateUTC
12:14 AM,8.6,5.0,85,29.91,0.5,ESE,6.9,-,N/A,Fog,Light Freezing Fog,120,2012-12-12 06:14:00
12:34 AM,10.4,6.8,85,29.89,0.5,SE,5.8,-,N/A,Fog,Light Freezing Fog,130,2012-12-12 06:34:00
12:53 AM,10.4,6.8,85,29.88,1.0,SE,6.9,-,N/A,,Overcast,130,2012-12-12 06:53:00
1:14 AM,10.4,6.8,85,29.86,5.0,SE,6.9,-,N/A,,Scattered Clouds,130,2012-12-12 07:14:00
1:34 AM,10.4,6.8,85,29.85,5.0,SE,6.9,-,N/A,,Clear,130,2012-12-12 07:34:00
1:53 AM,10.4,6.8,85,29.84,7.0,SE,6.9,-,N/A,,Clear,130,2012-12-12 07:53:00
2:13 AM,10.4,6.8,85,29.84,5.0,SE,9.2,-,N/A,,Clear,140,2012-12-12 08:13:00
2:34 AM,10.4,6.8,85,29.85,5.0,SE,8.1,-,N/A,,Clear,140,2012-12-12 08:34:00
2:53 AM,10.4,6.8,85,29.83,5.0,SE,6.9,-,N/A,,Clear,140,2012-12-12 08:53:00
3:13 AM,10.4,6.8,85,29.83,5.0,SE,6.9,-,N/A,,Clear,140,2012-12-12 09:13:00
3:34 AM,8.6,6.8,92,29.82,7.0,SE,5.8,-,N/A,,Clear,140,2012-12-12 09:34:00
3:53 AM,8.6,3.2,79,29.79,7.0,SE,4.6,-,N/A,,Clear,140,2012-12-12 09:53:00
4:13 AM,6.8,3.2,85,29.80,7.0,SSE,4.6,-,N/A,,Clear,160,2012-12-12 10:13:00
4:34 AM,6.8,3.2,85,29.79,10.0,Calm,Calm,-,N/A,,Clear,0,2012-12-12 10:34:00
4:53 AM,6.8,1.4,79,29.79,7.0,Calm,Calm,-,N/A,,Clear,0,2012-12-12 10:53:00
5:13 AM,5.0,1.4,85,29.77,10.0,SSE,3.5,-,N/A,,Clear,150,2012-12-12 11:13:00
5:34 AM,5.0,1.4,85,29.77,7.0,Calm,Calm,-,N/A,,Clear,0,2012-12-12 11:34:00
5:53 AM,6.8,3.2,85,29.77,10.0,Calm,Calm,-,N/A,,Clear,0,2012-12-12 11:53:00
6:13 AM,6.8,3.2,85,29.76,7.0,Calm,Calm,-,N/A,,Clear,0,2012-12-12 12:13:00
6:34 AM,6.8,3.2,85,29.77,10.0,Calm,Calm,-,N/A,,Clear,0,2012-12-12 12:34:00
7:13 AM,6.8,3.2,85,29.76,10.0,Calm,Calm,-,N/A,,Scattered Clouds,0,2012-12-12 13:13:00
7:34 AM,6.8,3.2,85,29.76,10.0,Calm,Calm,-,N/A,,Clear,0,2012-12-12 13:34:00
7:53 AM,8.6,5.0,85,29.75,10.0,SE,4.6,-,N/A,,Clear,140,2012-12-12 13:53:00
8:13 AM,8.6,6.8,92,29.75,10.0,Calm,Calm,-,N/A,,Clear,0,2012-12-12 14:13:00
8:34 AM,10.4,6.8,85,29.75,10.0,Calm,Calm,-,N/A,,Clear,0,2012-12-12 14:34:00
8:53 AM,10.4,8.6,92,29.76,10.0,Calm,Calm,-,N/A,,Clear,0,2012-12-12 14:53:00
9:14 AM,10.4,8.6,92,29.75,10.0,Calm,Calm,-,N/A,,Clear,0,2012-12-12 15:14:00
9:34 AM,12.2,10.4,92,29.75,10.0,SE,3.5,-,N/A,,Clear,140,2012-12-12 15:34:00
9:53 AM,15.8,14.0,93,29.75,10.0,SSE,3.5,-,N/A,,Clear,150,2012-12-12 15:53:00
10:14 AM,17.6,15.8,93,29.75,10.0,SE,4.6,-,N/A,,Clear,140,2012-12-12 16:14:00
10:34 AM,21.2,19.4,93,29.76,10.0,SE,6.9,-,N/A,,Clear,140,2012-12-12 16:34:00
10:53 AM,19.4,17.6,93,29.76,10.0,SSE,5.8,-,N/A,,Clear,150,2012-12-12 16:53:00
11:14 AM,23.0,19.4,86,29.76,10.0,South,4.6,-,N/A,,Clear,170,2012-12-12 17:14:00
11:34 AM,26.6,21.2,80,29.76,10.0,SW,5.8,-,N/A,,Clear,220,2012-12-12 17:34:00
11:53 AM,30.2,21.2,69,29.74,10.0,SSW,8.1,-,N/A,,Clear,210,2012-12-12 17:53:00
12:14 PM,30.2,21.2,69,29.74,10.0,SSW,9.2,-,N/A,,Clear,210,2012-12-12 18:14:00
12:34 PM,28.4,21.2,74,29.73,10.0,South,5.8,-,N/A,,Clear,180,2012-12-12 18:34:00
12:53 PM,28.4,21.2,74,29.74,10.0,South,5.8,-,N/A,,Clear,190,2012-12-12 18:53:00
1:14 PM,30.2,23.0,75,29.75,10.0,South,3.5,-,N/A,,Clear,190,2012-12-12 19:14:00
1:53 PM,33.8,24.8,70,29.74,10.0,WSW,3.5,-,N/A,,Clear,250,2012-12-12 19:53:00
2:14 PM,33.8,24.8,70,29.74,10.0,Calm,Calm,-,N/A,,Clear,0,2012-12-12 20:14:00
2:34 PM,32.0,24.8,75,29.75,10.0,Calm,Calm,-,N/A,,Clear,0,2012-12-12 20:34:00
2:53 PM,32.0,24.8,75,29.75,10.0,Calm,Calm,-,N/A,,Clear,0,2012-12-12 20:53:00
3:14 PM,32.0,26.6,80,29.77,10.0,South,4.6,-,N/A,,Clear,170,2012-12-12 21:14:00
3:34 PM,30.2,26.6,86,29.77,10.0,SSE,5.8,-,N/A,,Clear,160,2012-12-12 21:34:00
3:53 PM,32.0,26.6,80,29.78,10.0,South,5.8,-,N/A,,Scattered Clouds,170,2012-12-12 21:53:00
4:14 PM,30.2,26.6,86,29.78,10.0,SSE,4.6,-,N/A,,Mostly Cloudy,160,2012-12-12 22:14:00
4:34 PM,30.2,26.6,86,29.79,10.0,Calm,Calm,-,N/A,,Mostly Cloudy,0,2012-12-12 22:34:00
4:53 PM,28.4,24.8,86,29.80,10.0,Calm,Calm,-,N/A,,Mostly Cloudy,0,2012-12-12 22:53:00
5:14 PM,28.4,24.8,86,29.79,10.0,East,3.5,-,N/A,,Mostly Cloudy,80,2012-12-12 23:14:00
5:33 PM,28.4,24.8,86,29.80,10.0,NE,4.6,-,N/A,,Scattered Clouds,40,2012-12-12 23:33:00
5:54 PM,24.8,23.0,93,29.82,10.0,NE,5.8,-,N/A,,Clear,40,2012-12-12 23:54:00
6:14 PM,24.8,21.2,86,29.81,10.0,East,3.5,-,N/A,,Clear,80,2012-12-13 00:14:00
6:54 PM,23.0,21.2,93,29.83,10.0,Calm,Calm,-,N/A,,Clear,0,2012-12-13 00:54:00
7:14 PM,19.4,17.6,93,29.84,10.0,Calm,Calm,-,N/A,,Clear,0,2012-12-13 01:14:00
7:33 PM,17.6,15.8,93,29.84,10.0,NNE,4.6,-,N/A,,Clear,30,2012-12-13 01:33:00
7:54 PM,21.2,19.4,93,29.85,10.0,Calm,Calm,-,N/A,,Clear,0,2012-12-13 01:54:00
8:14 PM,21.2,19.4,93,29.85,10.0,Calm,Calm,-,N/A,,Clear,0,2012-12-13 02:14:00
8:33 PM,19.4,17.6,93,29.85,7.0,Calm,Calm,-,N/A,,Clear,0,2012-12-13 02:33:00
8:54 PM,19.4,17.6,93,29.86,7.0,Calm,Calm,-,N/A,,Clear,0,2012-12-13 02:54:00
9:13 PM,17.6,15.8,93,29.86,7.0,Calm,Calm,-,N/A,,Clear,0,2012-12-13 03:13:00
9:34 PM,15.8,12.2,86,29.86,4.0,NW,3.5,-,N/A,,Clear,310,2012-12-13 03:34:00
9:54 PM,15.8,14.0,93,29.87,5.0,WNW,4.6,-,N/A,,Clear,290,2012-12-13 03:54:00
10:13 PM,17.6,15.8,93,29.88,10.0,WNW,5.8,-,N/A,,Clear,300,2012-12-13 04:13:00
10:34 PM,19.4,17.6,93,29.88,10.0,NNW,8.1,-,N/A,,Clear,330,2012-12-13 04:34:00
10:54 PM,21.2,19.4,93,29.87,10.0,North,9.2,-,N/A,,Clear,350,2012-12-13 04:54:00
11:13 PM,21.2,19.4,93,29.88,10.0,NNW,8.1,-,N/A,,Clear,340,2012-12-13 05:13:00
11:34 PM,23.0,21.2,93,29.88,10.0,NNW,10.4,-,N/A,,Clear,340,2012-12-13 05:34:00
11:54 PM,23.0,21.2,93,29.88,10.0,NNW,11.5,-,N/A,,Clear,340,2012-12-13 05:54:00